Regional Weather Roundup
Issued by NWS

Home | Current Version | Previous Version | Text Only | Print | Product List | Glossary Off
Versions: 1 2 3 4 5 6 7 8 9 10 11 12 13 14 15 16 17 18 19 20 21 22 23 24 25 26 27 28 29 30 31 32 33 34 35 36 37 38 39 40 41 42 43 44 45 46 47 48 49 50

000
ASUS43 KOAX 052210
RWRNE

WEATHER ROUNDUP FOR NEBRASKA
NATIONAL WEATHER SERVICE OMAHA NE
500 PM CDT TUE MAY 05 2015

NOTES: SATELLITE DATA IS BEING USED TO AUGMENT CLOUD COVER ABOVE
       12000 FEET.
       "FAIR" INDICATES FEW OR NO CLOUDS BELOW 12,000 FEET WITH NO
       SIGNIFICANT WEATHER AND/OR OBSTRUCTIONS TO VISIBILITY.

  * THESE STATIONS DO NOT REPORT WEATHER SUCH AS RAIN...SNOW OR FOG.

NEZ001>004-019>022-054>056-052300-
NEBRASKA PANHANDLE

CITY           SKY/WX    TMP DP  RH WIND       PRES   REMARKS
SCOTTSBLUFF    CLOUDY    57  50  77 SE16      29.89F
ALLIANCE       LGT RAIN  56  52  86 SE13G23   29.91F
CHADRON        CLOUDY    63  51  65 SE16      29.87F
KIMBALL        RAIN      51  51  97 SE10      29.89F
SIDNEY         LGT RAIN  54  52  93 E10       29.91F
$$

NEZ057>060-069>072-079>082-052300-
SOUTHWEST NEBRASKA

CITY           SKY/WX    TMP DP  RH WIND       PRES   REMARKS
NORTH PLATTE   RAIN      60  57  89 CALM      29.91F
IMPERIAL       LGT RAIN  60  57  89 SE16      29.87F
LEXINGTON      CLOUDY    63  60  92 S8        29.91F
MCCOOK         CLOUDY    64  58  80 SE10      29.88F
OGALLALA       LGT RAIN  58  57  97 SE8       29.90F
$$

NEZ005>010-023>029-035>040-094-052300-
NORTH CENTRAL NEBRASKA

CITY           SKY/WX    TMP DP  RH WIND       PRES   REMARKS
VALENTINE      LGT RAIN  60  57  89 SE9       29.94F
AINSWORTH      CLOUDY    62  60  95 E7        29.95F
BROKEN BOW     CLOUDY    69  58  67 SE16      29.89F
O`NEILL        CLOUDY    71  59  65 SE12      29.95F
ORD            CLOUDY    73  52  47 SE18G31   29.90F
THEDFORD       CLOUDY    61  60  94 E7        29.93F FOG
$$

NEZ041-046>049-061>064-073>077-083>087-052300-
SOUTH CENTRAL NEBRASKA

CITY           SKY/WX    TMP DP  RH WIND       PRES   REMARKS
GRAND ISLAND   PTSUNNY   74  52  46 S16G31    29.94F
AURORA         PTSUNNY   75  50  40 SE25      29.94F
HASTINGS       PTSUNNY   74  52  46 SE20G30   29.93F
HEBRON         PTSUNNY   77  49  36 SE17      29.95F
HOLDREGE       CLOUDY    70  49  47 S18G25    29.91F
KEARNEY *      CLOUDY    73  52  46 SE21G29   29.91F
YORK           PTSUNNY   73  57  56 SE16G24   29.96F
$$

NEZ011>018-030>034-042>045-052300-
NORTHEAST NEBRASKA

CITY           SKY/WX    TMP DP  RH WIND       PRES   REMARKS
NORFOLK        CLOUDY    74  59  59 SE17G23   29.96F
ALBION         CLOUDY    73  58  59 SE20G26   29.96F
BLAIR          CLOUDY    74  59  58 SE12      30.00F
COLUMBUS *     CLOUDY    73  57  56 SE12      29.98F
FREMONT        CLOUDY    74  60  61 SE12      29.99F
TEKAMAH        PTSUNNY   77  60  55 S12       29.99F
WAYNE          PTSUNNY   74  61  62 S13G21    29.98F
$$

NEZ050>053-065>068-078-088>093-052300-
SOUTHEAST NEBRASKA

CITY           SKY/WX    TMP DP  RH WIND       PRES   REMARKS
LINCOLN        CLOUDY    76  56  49 S18G29    29.98F
OMAHA EPPLEY   CLOUDY    76  59  55 SE16G22   29.99F
BEATRICE       CLOUDY    77  56  47 SE13G18   29.97F
FALLS CITY     CLOUDY    77  55  46 S13       29.99F
NEBRASKA CITY  CLOUDY    74  53  49 S15G21    30.01F
PLATTSMOUTH    CLOUDY    75  56  50 SE13      30.00F
$$

NEZ044-045-051>053-067-052300-
OMAHA AREA

CITY           SKY/WX    TMP DP  RH WIND       PRES   REMARKS
OMAHA EPPLEY   CLOUDY    76  59  55 SE16G22   29.99F
BLAIR          CLOUDY    74  59  58 SE12      30.00F
FREMONT        CLOUDY    74  60  61 SE12      29.99F
MILLARD        CLOUDY    75  62  63 SE13      29.99F
OFFUTT AFB     CLOUDY    76  60  57 SE15      29.99F
PLATTSMOUTH    CLOUDY    75  56  50 SE13      30.00F
$$



USA.gov is the U.S. government's official web portal to all federal, state and local government web resources and services.